Home > Weather > Höxter > Past weeks

Flag for Germany Past Weather in Höxter, North Rhine-Westphalia, Germany — Yesterday and Last 2 Weeks

Now
68 °F

Sunny.


Feels Like: 68 °F
Forecast: 52 / 72 °F
Wind: 16 mph from West

Location: Kassel / Calden

Current Time: Jun 29, 2016 at 1:01:14 PM

Latest Report: Jun 29, 2016 at 12:20 PM


Visibility: 10 mi

Pressure: 29.92 "Hg

Humidity: 49%

Dew Point: 48 °F

Location of HöxterLocation

Past Weather in Höxter — Graph

°F

Höxter Temperature Yesterday

Maximum temperature yesterday: 70 °F (at 3:20 PM)
Minimum temperature yesterday: 52 °F (at 5:50 AM)
Average temperature yesterday: 64 °F

High & Low Weather Summary for the Past Weeks

 TemperatureHumidityPressure
High90 °F (Jun 23, 3:50 PM)100% (Jun 15, 7:20 AM)30.24 "Hg (Jun 15, 7:20 AM)
Low50 °F (Jun 20, 7:20 AM)16% (Jun 28, 6:20 AM)29.47 "Hg (Jun 14, 7:20 PM)
Average65 °F72%29.96 "Hg
* Reported Jun 14 11:20 AM — Jun 29 11:50 AM, Höxter, Weather by CustomWeather, © 2016

Note: Actual official high and low records may vary slightly from our data, if they occured in-between our weather recording intervals... More about our weather records

Advertising

Höxter Weather History for the Previous 24 Hours

Scroll right to see more
 ConditionsComfort  
Time TempWeatherWind HumidityBarometerVisibility
11:50 AM
Wed, Jun 29
68 °FScattered clouds.14 mph53%29.89 "HgN/A
11:20 AM68 °FScattered clouds.14 mph49%29.89 "HgN/A
10:50 AM68 °FScattered clouds.13 mph60%29.89 "HgN/A
10:20 AM64 °FScattered clouds.12 mph68%29.89 "HgN/A
9:50 AM63 °FScattered clouds.13 mph73%29.89 "HgN/A
9:20 AM63 °FScattered clouds.10 mph77%29.89 "HgN/A
8:50 AM61 °FScattered clouds.10 mph83%29.89 "HgN/A
8:20 AM59 °FBroken clouds.10 mph94%29.89 "HgN/A
7:50 AM61 °FScattered showers. Partly sunny.10 mph88%29.86 "HgN/A
7:20 AM63 °FPartly sunny.7 mph88%29.86 "HgN/A
9:20 PM
Tue, Jun 28
64 °FSunny.6 mph68%29.95 "Hg10 mi
8:50 PM68 °FSunny.7 mph60%29.95 "Hg10 mi
8:20 PM68 °FSunny.8 mph60%29.95 "Hg10 mi
7:50 PM68 °FScattered clouds.7 mph60%29.95 "HgN/A
7:20 PM70 °FScattered clouds.6 mph53%29.98 "HgN/A
6:50 PM70 °FScattered clouds.7 mph53%29.98 "HgN/A
6:20 PM70 °FScattered clouds.6 mph50%29.98 "HgN/A
5:50 PM70 °FScattered clouds.5 mph50%30.01 "HgN/A
5:20 PM70 °FSunny.2 mph50%30.01 "Hg10 mi
4:50 PM68 °FScattered clouds.2 mph53%30.01 "HgN/A
4:20 PM68 °FPartly sunny.6 mph49%30.01 "HgN/A
3:50 PM68 °FPartly sunny.3 mph49%30.04 "HgN/A
3:20 PM70 °FScattered clouds.5 mph50%30.04 "HgN/A
2:50 PM68 °FScattered clouds.5 mph53%30.04 "HgN/A
2:20 PM66 °FScattered clouds.3 mph56%30.07 "HgN/A
1:50 PM66 °FScattered clouds.6 mph52%30.07 "HgN/A
1:20 PM66 °FScattered clouds.6 mph56%30.07 "HgN/A
Weather by CustomWeather, © 2016

See weather overviewHow to use our weather pages